User: anonymous
Location: Reading
(52.0000°N, 0.0000°E)
Time: 04:21:01
(UTC+01:00)
Language:

Iridium 41 - Orbit

View from above orbital plane
View from above orbital plane
View from above satellite
View from above satellite

Ground track
Ground track

The orbit data is extracted from the following two-line orbital elements,

1 25040U 97069B   14211.32954384  .00000230  00000-0  75149-4 0  8836
2 25040 086.3966 102.0453 0002260 103.9903 031.1846 14.34220505875404
Epoch (UTC): 30 July 2014 07:54:32
Eccentricity: 0.0002260
inclination: 86.3966°
perigee height: 776 km
apogee height: 779 km
right ascension of ascending node: 102.0453°
argument of perigee: 103.9903°
revolutions per day: 14.34220505
mean anomaly at epoch: 31.1846°
orbit number at epoch: 87540

The dashed part of the orbit path shows where the satellite is in the earth's shadow,  

DLR